Wind_Speed
4 3 6 10 8 7 5 4 5 3 5 2 7 5 10 9 6 16 16 9 8 16 16 22 24 27 32 37 39 41 42 39 36 35 32 31 30 26 22 20 16 14 12 11
3 6 11 8 3 6 5 5 5 6 5 5 5 9 10 8 10 16 26 29 15 10 10 12 25 33 38 41 40 45 45 43 40 38 37 36 35 28 25 22 18 14 12 11
8 7 5 7 5 5 4 5 4 8 5 3 3 7 5 7 9 10 18 24 15 18 17 15 17 30 33 38 45 47 49 47 43 40 39 33 32 27 24 23 21 17 14 11
5 5 8 5 6 8 6 8 8 6 2 4 4 5 6 7 9 8 15 15 19 17 18 18 20 25 33 40 40 42 46 48 46 44 43 41 37 28 29 30 24 20 16 12
9 5 6 6 8 8 8 7 8 5 5 3 4 2 7 3 6 10 11 12 11 16 18 19 21 32 42 36 39 42 41 47 49 47 46 44 38 38 33 30 26 22 18 13
6 3 5 8 6 7 5 4 5 5 3 2 5 7 5 5 7 5 7 13 8 12 16 19 28 30 31 30 31 35 40 45 50 50 47 47 44 39 33 33 29 24 21 16
8 3 5 7 3 4 4 5 2 3 0 10 2 5 8 8 9 9 9 10 8 7 14 18 19 18 24 29 34 36 39 40 47 52 50 49 45 43 38 36 33 29 24 20
5 3 8 9 1 3 4 8 6 6 5 7 4 6 6 8 7 10 8 7 8 7 9 17 21 23 34 36 37 39 41 38 47 50 51 49 46 44 40 37 34 30 25 19
5 5 4 3 4 1 3 3 6 2 1 3 4 7 2 14 13 15 13 9 8 8 9 11 17 24 30 34 41 44 41 42 43 49 45 47 46 44 41 33 30 27 22 18
2 5 3 6 3 6 5 3 2 2 4 4 4 2 3 12 13 14 15 13 11 8 8 10 12 21 31 36 37 34 38 46 53 49 47 48 47 42 34 31 29 27 23 19
2 2 6 4 5 3 4 4 4 2 3 4 3 2 3 5 7 9 10 10 10 10 11 10 11 20 33 35 37 41 37 35 35 40 41 42 44 39 34 31 29 27 24 20
3 3 2 3 8 14 9 4 3 1 2 1 2 4 6 7 8 7 11 13 11 11 9 9 10 11 20 28 30 35 34 35 37 39 37 37 41 38 34 31 29 27 25 20
2 2 2 6 3 3 5 4 3 2 1 4 5 4 8 12 12 12 11 12 13 12 15 11 9 8 0 13 20 24 27 30 30 33 33 38 41 38 34 32 30 28 25 21
4 2 4 5 3 1 4 10 4 2 1 5 6 6 9 13 12 12 15 15 12 12 11 12 8 7 9 10 14 20 23 27 30 33 34 39 42 40 35 31 31 29 26 23
4 3 3 5 5 6 8 11 7 8 7 6 4 12 13 13 8 11 9 13 15 12 11 11 11 7 7 10 13 17 22 27 31 33 36 38 41 38 34 32 33 31 27 23
2 2 3 4 10 9 12 12 13 11 10 18 15 23 13 9 6 7 14 10 13 10 10 8 8 11 9 7 8 16 21 25 30 29 33 39 41 38 35 34 34 31 26 23
5 4 2 3 2 4 8 17 14 6 6 7 9 13 8 5 8 5 7 11 7 10 9 7 7 5 11 16 8 8 18 24 26 27 27 32 38 37 34 33 30 26 24 22
6 5 3 3 1 4 6 3 5 10 9 10 13 12 13 15 11 10 6 7 7 2 7 5 5 12 18 19 21 9 16 20 22 20 21 26 28 30 29 26 24 23 21 21
8 5 2 3 4 7 5 5 6 7 10 17 16 17 13 10 4 9 7 7 7 7 2 7 12 17 19 18 18 19 18 10 15 20 19 19 22 22 22 23 22 20 21 19
5 3 4 3 4 7 6 4 7 5 16 8 11 12 11 6 9 11 12 8 9 6 11 15 2 12 20 21 13 19 25 17 15 8 13 19 22 23 23 21 22 21 18 15
2 1 5 5 5 8 7 5 6 7 6 3 1 7 8 6 8 6 5 7 5 6 6 6 9 8 15 13 5 16 23 20 19 18 17 14 11 14 18 20 17 16 13 8
6 4 4 3 4 13 11 5 9 5 3 1 3 2 5 7 7 6 5 7 7 6 8 7 6 9 14 17 6 6 9 19 15 21 21 21 19 18 18 18 14 9 5 2
5 9 4 9 7 6 5 5 6 6 7 6 6 5 4 7 7 8 8 5 7 10 11 12 7 6 8 17 21 15 8 11 19 20 19 16 14 12 9 11 10 7 1 3
5 8 7 6 14 23 23 20 14 10 13 14 11 9 6 9 8 9 10 10 5 10 10 10 8 7 7 11 18 22 21 15 12 13 15 16 15 15 13 9 5 3 3 5
10 4 11 17 22 20 21 19 15 15 13 13 13 12 10 10 11 9 11 9 10 7 8 13 12 11 8 5 7 13 25 27 27 23 17 14 10 9 9 8 4 5 5 3
10 15 8 13 17 15 14 14 12 12 11 13 12 11 9 10 12 11 10 11 16 10 5 9 17 13 9 4 6 11 18 23 23 21 18 16 13 9 8 7 7 1 4 5
Wind_Direction
189 127 194 217 198 203 210 202 230 248 240 253 254 255 271 237 240 199 222 207 224 199 205 195 185 182 186 197 194 193 189 190 190 189 185 179 179 178 173 170 165 154 139 124
71 218 224 218 178 194 202 239 270 274 261 175 269 271 260 218 224 212 206 234 205 211 176 169 172 179 189 189 193 195 194 191 192 193 185 182 180 181 179 173 167 159 149 135
181 221 185 177 183 165 207 189 224 234 297 252 276 292 232 265 213 218 224 218 201 194 197 176 174 181 186 187 194 192 194 193 195 192 184 181 177 180 182 178 173 167 162 145
217 242 198 181 213 167 236 210 231 249 135 256 152 280 252 256 233 222 219 218 215 200 204 192 186 182 188 198 193 191 192 194 193 192 188 185 180 179 191 184 177 173 169 157
232 200 186 196 212 177 223 207 205 215 209 71 240 230 269 293 260 250 248 244 218 194 193 198 197 194 196 190 190 190 189 191 194 194 195 189 189 192 190 184 179 176 173 172
237 212 178 219 235 193 198 145 52 52 108 253 189 183 264 215 208 250 218 250 225 195 196 200 201 203 196 189 185 183 186 190 195 195 196 196 197 194 188 183 181 179 180 180
342 317 355 29 28 9 120 78 297 313 161 248 231 137 234 242 238 230 228 246 258 196 201 203 195 194 197 191 183 184 187 189 194 197 199 202 203 200 195 187 183 182 183 186
16 327 13 336 339 250 212 165 166 228 209 258 123 232 252 253 16 5 345 305 303 306 217 208 204 199 189 194 189 187 189 190 196 199 201 205 208 204 199 192 188 189 191 185
15 275 341 345 344 18 314 181 155 177 355 96 230 288 303 4 1 357 347 344 339 327 307 234 215 205 203 196 193 191 190 193 196 200 200 205 208 205 198 193 192 192 189 183
121 287 22 295 335 14 69 352 67 7 208 234 268 281 301 347 341 342 342 340 333 330 319 300 235 210 204 198 199 201 198 192 197 197 200 205 206 204 194 192 192 191 188 185
29 162 305 341 41 282 336 23 360 125 139 196 214 273 331 304 311 324 330 326 325 336 330 308 283 232 207 201 194 195 195 195 193 194 197 200 202 196 189 196 194 193 189 189
21 142 292 259 88 57 65 48 47 66 207 225 178 244 332 323 313 332 342 340 336 343 325 321 312 259 207 202 198 197 194 192 191 190 191 191 197 192 189 193 196 192 192 191
308 352 5 351 347 39 50 47 35 232 12 237 166 216 32 356 342 340 345 342 336 349 353 345 5 4 156 179 188 190 191 189 182 180 181 187 190 187 189 190 195 195 194 197
96 139 168 194 230 175 290 317 351 107 230 334 258 319 348 343 335 336 341 334 338 336 8 351 5 17 48 81 137 163 176 180 173 172 176 185 189 189 192 192 194 198 199 201
116 208 206 238 270 279 268 284 271 235 219 224 267 308 307 313 309 318 310 339 333 343 355 8 355 11 42 99 134 161 169 170 170 170 178 185 189 190 193 195 199 200 202 203
19 245 189 262 237 242 267 259 253 256 247 254 264 272 264 259 272 335 325 321 338 336 344 356 9 19 10 43 138 164 174 179 179 176 178 186 187 189 190 196 201 201 197 200
169 167 127 268 193 236 274 250 231 223 216 228 244 265 272 279 291 301 310 299 303 334 346 345 339 5 34 16 20 193 184 183 181 181 182 186 189 190 192 201 200 195 194 198
170 154 159 229 168 236 238 168 180 213 245 247 249 252 244 263 274 255 243 266 268 6 333 6 333 354 20 13 24 26 185 179 180 173 174 187 184 186 192 194 194 191 194 197
186 141 190 181 212 285 280 212 192 183 252 236 237 247 243 249 257 281 258 237 248 241 138 327 57 24 29 24 23 36 63 154 173 164 157 164 180 186 187 187 190 190 190 189
104 107 141 156 182 239 228 208 205 94 262 279 237 252 244 235 251 253 270 229 247 228 208 186 180 77 28 26 21 47 48 64 74 108 157 164 171 182 180 184 179 180 177 180
145 141 194 210 239 276 240 226 126 184 255 356 201 242 258 204 224 241 283 275 259 251 246 241 225 168 102 47 43 75 73 44 80 92 89 107 134 155 156 152 155 155 164 181
191 197 213 203 194 272 211 134 191 210 244 242 304 294 293 266 275 268 277 279 279 281 277 254 244 211 160 150 140 82 94 126 116 94 102 108 117 129 137 140 144 151 162 222
255 204 204 199 213 238 206 224 218 167 211 223 246 240 237 280 289 303 287 224 264 292 283 282 252 243 201 178 170 157 257 190 134 145 145 134 142 154 149 152 155 148 141 315
244 236 241 289 242 254 261 263 252 243 249 252 232 248 203 244 261 279 289 286 220 273 299 278 266 260 234 204 201 188 176 184 194 162 152 158 160 175 166 152 145 126 183 216
244 209 243 255 264 270 265 259 262 266 253 258 261 257 235 218 240 249 274 275 277 249 266 282 253 237 243 220 217 201 193 191 183 177 157 164 166 168 143 134 127 145 227 257
250 255 254 266 280 278 267 269 265 255 238 236 233 249 240 215 231 235 241 246 261 259 235 243 257 262 235 238 197 172 173 179 164 155 156 157 153 145 133 155 168 208 322 334
Height
760 775 784 776 773 769 773 776 776 770 759 759 763 763 754 741 735 730 731 744 748 739 735 743 750 757 761 765 771 778 777 784 790 794 798 804 807 813 816 819 821 823 824 825
768 777 762 757 763 767 769 775 777 768 759 761 760 760 752 742 738 728 724 723 733 740 735 738 742 746 752 758 768 769 775 779 784 789 793 798 804 810 815 817 819 821 824 826
767 755 749 755 760 768 771 775 773 772 759 755 758 764 747 730 727 724 719 711 723 726 728 729 735 738 746 751 755 761 768 773 779 785 791 797 803 810 813 814 816 819 823 825
755 745 748 756 757 762 773 760 759 763 769 785 757 788 753 737 731 723 714 712 710 719 719 721 725 732 737 739 750 756 761 766 773 780 786 789 794 800 803 807 813 817 821 824
749 743 747 753 754 750 759 747 757 759 771 772 767 780 758 742 740 732 718 709 709 711 712 715 718 720 720 733 741 748 757 762 768 776 781 785 791 796 800 806 810 814 818 822
740 730 735 738 734 738 735 745 762 775 780 791 765 774 766 748 732 720 716 710 705 707 706 708 710 716 720 730 739 745 752 757 763 770 776 780 785 792 798 801 805 810 816 819
761 743 738 736 739 737 740 761 788 789 791 775 753 774 750 727 721 712 710 704 701 704 704 704 707 712 721 726 729 737 745 751 757 763 768 775 781 786 790 795 800 806 812 815
788 766 758 749 748 749 750 761 790 785 791 767 760 765 745 721 718 723 714 710 707 705 703 700 699 701 705 716 721 727 734 743 750 757 762 769 777 782 786 791 797 803 807 812
795 778 762 751 751 749 751 760 757 766 766 778 766 744 721 728 730 728 725 720 716 712 705 699 694 696 700 706 709 714 723 733 742 748 758 764 772 777 781 790 795 801 806 810
798 797 770 761 753 755 758 764 766 776 771 777 767 755 761 749 744 738 732 727 718 710 707 701 693 690 693 696 705 716 718 720 726 737 749 757 765 773 780 787 792 797 803 807
798 798 783 768 779 782 773 782 785 779 778 779 772 770 750 754 750 747 740 731 724 713 705 700 692 685 684 690 696 700 712 721 729 736 744 751 760 770 773 782 788 792 798 803
800 807 801 785 787 782 783 795 795 784 778 791 784 775 753 754 750 745 739 732 722 714 708 699 690 683 682 686 692 697 706 714 721 729 739 748 758 765 768 776 785 790 794 799
802 815 816 798 793 787 794 795 794 796 800 786 778 771 756 752 749 745 742 736 728 716 707 702 693 688 684 685 690 697 704 711 718 727 736 746 755 760 767 772 781 787 791 795
801 814 813 820 804 807 807 795 794 795 805 806 793 773 764 762 758 750 745 740 730 722 712 708 702 696 691 692 694 699 706 712 717 723 732 742 749 755 762 770 777 783 787 791
808 814 810 809 803 801 800 797 798 796 794 801 779 780 769 764 762 754 749 741 735 725 718 714 711 704 700 699 700 703 707 711 715 721 728 736 745 752 759 768 774 779 783 788
815 821 812 810 801 799 800 793 791 791 791 784 781 772 765 760 758 751 747 743 740 731 724 721 717 714 711 707 705 704 707 711 715 719 724 731 739 746 755 765 771 776 779 785
814 817 823 813 803 806 813 785 783 781 778 776 785 770 759 756 753 751 749 745 742 737 729 727 725 719 714 713 709 706 707 710 715 717 723 729 734 742 750 760 768 772 776 781
816 817 823 830 811 822 774 769 769 775 771 768 764 760 758 756 752 748 745 743 739 736 734 729 727 722 713 713 710 710 708 711 715 719 724 729 733 740 748 757 765 768 773 777
801 812 828 840 823 787 770 768 773 774 765 751 753 750 749 748 746 744 740 739 734 730 731 730 727 726 719 716 712 714 710 712 717 719 721 725 734 742 750 754 760 766 770 773
803 804 821 829 846 823 769 757 755 762 762 746 748 747 748 748 754 740 737 733 731 727 729 728 730 726 723 721 720 715 713 720 719 721 725 728 733 741 746 753 757 763 767 772
798 810 822 823 834 791 761 749 754 772 758 741 740 743 745 749 741 737 733 729 727 725 724 723 722 722 722 725 731 725 719 726 724 726 723 726 735 742 746 752 759 762 766 770
793 795 811 806 819 780 745 752 754 748 744 740 741 738 741 739 734 733 731 729 726 725 723 724 723 722 723 727 731 733 733 730 735 729 735 739 745 750 751 752 759 762 764 768
793 772 777 770 765 744 739 735 735 736 739 739 739 738 737 739 735 732 729 730 727 724 723 722 722 722 722 724 727 730 737 739 729 738 741 741 746 754 755 754 756 756 758 762
769 760 763 766 738 733 731 731 730 733 733 730 730 730 732 733 732 729 727 723 727 723 721 722 722 723 722 724 725 727 729 732 738 739 738 743 744 750 748 750 752 752 756 762
755 759 750 742 732 730 728 724 723 724 724 723 722 722 725 728 726 726 724 722 719 721 721 722 723 723 723 724 724 724 726 728 731 734 734 744 748 751 748 749 750 749 759 757
745 744 744 729 722 723 723 721 718 717 717 716 716 717 717 719 720 720 720 718 716 717 720 721 721 720 721 723 723 724 726 730 731 734 739 745 747 750 748 753 754 754 753 751